Regional Weather Roundup
Issued by NWS

Home | Current Version | Previous Version | Graphics & Text | Print | Product List | Glossary On
Versions: 1 2 3 4 5 6 7 8 9 10 11 12 13 14 15 16 17 18 19 20 21 22 23 24 25 26 27 28 29 30 31 32 33 34 35 36 37 38 39 40 41 42 43 44 45 46 47 48 49 50
000
ASUS43 KTOP 020159
RWRKS

WEATHER ROUNDUP FOR KANSAS
NATIONAL WEATHER SERVICE GOODLAND KS
900 PM CDT SAT AUG 01 2015

NOTE:  "FAIR" INDICATES FEW OR NO CLOUDS BELOW 12,000 FEET WITH NO
SIGNIFICANT WEATHER AND/OR OBSTRUCTIONS TO VISIBILITY.

KSZ001>006-013>018-027>032-041>047-020300-
NORTHWEST KANSAS

CITY           SKY/WX    TMP DP  RH WIND       PRES   REMARKS
GOODLAND       MOCLDY    77  56  48 S9        30.03R
HAYS           CLEAR     82  59  44 S8        29.95S
HILL CITY      CLEAR     82  60  47 S8        29.96R
RUSSELL        CLEAR     82  63  52 S10       29.93S
$$

KSZ061>065-074>080-084>089-020300-
SOUTHWEST KANSAS

CITY           SKY/WX    TMP DP  RH WIND       PRES   REMARKS
DODGE CITY     CLEAR     79  65  62 S10       30.01R
ELKHART          N/A     76  67  74 SE9         N/A
GARDEN CITY    CLEAR     79  66  64 SE8       30.01R
GREAT BEND     CLEAR     81  66  61 S9        29.96R
LIBERAL        PTCLDY    81  64  57 S9        30.01R
PRATT          PTCLDY    81  66  61 SE6       30.00R
$$

KSZ066>073-081>083-090>101-020300-
SOUTHEAST KANSAS

CITY           SKY/WX    TMP DP  RH WIND       PRES   REMARKS
CHANUTE        CLEAR     79  70  74 S7        29.96R
COFFEYVILLE    CLEAR     80  68  66 S7        29.95S
HUTCHINSON     CLEAR     82  69  64 SE7       29.96R
MEDICINE LODGE   N/A     81  71  71 S6        29.96R
NEWTON         CLEAR     81  66  61 S7        29.99S
PARSONS        CLEAR     76  71  85 CALM      29.97R
WICHITA INTL   PTCLDY    82  71  69 S8        29.95S
WICHITA JABRA  CLEAR     82  70  66 S7        29.96R
WICHITA MCCONL CLEAR     83  71  66 SE7       29.96S
WINFIELD       CLEAR     81  70  69 SE6       29.97R
$$

KSZ007>012-019>026-033>040-048>060-102>105-020300-
NORTHEAST KANSAS

CITY           SKY/WX    TMP DP  RH WIND       PRES   REMARKS
CONCORDIA      CLEAR     78  63  59 S10       29.92R
EMPORIA        PTCLDY    81  70  69 S7        29.95R
LAWRENCE       CLEAR     79  69  71 SE8       29.94R
MANHATTAN      CLEAR     81  70  69 CALM      29.92S
OLATHE IND     CLEAR     76  65  68 E10       29.98R
OLATHE EXE     CLEAR     74  63  68 SE8       29.97R
SALINA         CLEAR     83  67  58 S7        29.93R
TOPEKA BILLARD CLEAR     83  72  69 CALM      29.93R
TOPEKA FORBES  CLEAR     83  71  67 CALM      29.94R
$$


USA.gov is the U.S. government's official web portal to all federal, state and local government web resources and services.